Warning: Javascript must be enabled to use all the features on this page!


Page Loading - Please Wait...

Click to hideNews Bulletins

Peak Streamflow for the Nation

USGS 03232470 Paint Creek near Bainbridge OH

Ross County, Ohio
Hydrologic Unit Code 05060003
Latitude  39°15'08", Longitude  83°20'58" NAD27
Drainage area 570  square miles
Contributing drainage area 570  square miles
Gage datum 746 feet above NGVD29
Output formats
Table
Graph
Tab-separated file
peakfq (watstore) format
Reselect output format
Water
Year
Date Gage
Height
(feet)
Stream-
flow
(cfs)
1963 1963-03-05 26.503 42,300
1964 1964-03-10 27.303 45,000
1965 1965-07-23 21.873 28,700
1966 1966-02-13 13.053 10,900
1967 1966-12-10 11.073 9,000
1968 1968-05-24 66.786 32,800
1969 1969-01-29 54.25 8,050
1970 1970-04-02 64.74 28,200
1971 1971-02-23 54.15 7,9106
1972 1972-06-16 53.35 5,9506
1973 1972-11-14 54.60 6,5506
1974 1973-11-29 55.14 8,7206
1975 1975-03-02 54.67 7,0906
1976 1976-02-22 54.40 6,3006
1977 1977-05-07 51.84 2,3706
1978 1978-03-19 54.89 7,8106
1979 1979-02-28 55.09 7,8606
1980 1979-11-30 53.15 4,1706
1981 1981-06-10 53.15 4,1706
1982 1982-02-05 54.64 6,9906
1983 1983-05-14 53.61 5,0306
1984 1984-03-31 52.78 3,7306
1985 1985-02-28 9.646 6,9906
1986 1985-12-04 8.50 6,7106
1987 1986-12-06 6.67 3,5706
1988 1988-02-22 6.17 2,9106
1989 1989-04-02 7.81 5,3806
1990 1990-06-05 7.80 5,3706
1991 1991-01-30 8.69 7,6106
1992 1992-07-29 8.09 6,3706
1993 1993-03-11 8.15 6,4906
1994 1994-02-02 9.07 8,4506
1995 1995-03-08 7.94 6,0906
1996 1996-01-02 8.77 7,7806
1997 1997-03-06 8.59 7,4006
1998 1998-06-18 8.03 6,2606
2019 2019-02-22 8.82  
?
  Peak Gage-Height Qualification Codes.
?
  Peak Streamflow Qualification Codes.